World > North America > United States > Indiana
Hourly Weather in Big Lake, IndianaBig Lake, Indiana Hourly Weather

Big Lake, IN Hourly Weather

Hourly Weather Big Lake, IndianaHourly Weather in Big Lake, IN
Lat: 41.28N, Lon: 85.5W  ICAO: KASW
Web Search

Helpful Tip: Type the letters wx in the search engine next time you need to find us.

Feedback

Big Lake Hourly Weather

36 Hour Weather Scroll   °F Click to change Big Lake hourly weather to Imperial units.Click to change Big Lake hourly weather to Metric units. °C
Currently, Overcast, temperature is 28°F-2°C, dew point 16°F-9°C, humidity 59%. Wind direction is W at 17 mph27 km/h with visibility of 10.00 mi16 km. Barometric pressure is 30 in1016 mb.

Dec 06
7:00 PM

Dec 06
8:00 PM

Dec 06
9:00 PM

Dec 06
10:00 PM

Dec 06
11:00 PM

Dec 07
MIDNIGHT

Dec 07
1:00 AM

Dec 07
2:00 AM

Dec 07
3:00 AM

Dec 07
4:00 AM

Dec 07
5:00 AM

Dec 07
6:00 AM

Dec 07
7:00 AM

Dec 07
8:00 AM

Dec 07
9:00 AM

Dec 07
10:00 AM

Dec 07
11:00 AM

Dec 07
NOON

Dec 07
1:00 PM

Dec 07
2:00 PM

Dec 07
3:00 PM

Dec 07
4:00 PM

Dec 07
5:00 PM

Dec 07
6:00 PM

Dec 07
7:00 PM

Dec 07
8:00 PM

Dec 07
9:00 PM

Dec 07
10:00 PM

Dec 07
11:00 PM

Dec 08
MIDNIGHT

Dec 08
1:00 AM

Dec 08
2:00 AM

Dec 08
3:00 AM

Dec 08
7:00 AM

Dec 08
8:00 AM

Dec 08
9:00 AM
Cloudy Cloudy Cloudy Cloudy Cloudy Partly Cloudy Partly Cloudy Partly Cloudy Cloudy Cloudy Cloudy Cloudy Cloudy Cloudy Cloudy Cloudy Cloudy Clear Clear Clear Clear Clear Clear Clear Clear Clear Clear Clear Clear Clear Clear Clear Clear Clear Clear Cloudy
Cloudy Cloudy Cloudy Cloudy Cloudy Partly Cloudy Partly Cloudy Partly Cloudy Cloudy Cloudy Cloudy Cloudy Cloudy Cloudy Cloudy Cloudy Cloudy Clear Clear Clear Clear Clear Clear Clear Clear Clear Clear Clear Clear Clear Clear Clear Clear Clear Clear Cloudy
20°F-7°C 19°F-7°C 18°F-8°C 17°F-8°C 16°F-9°C 16°F-9°C 15°F-9°C 16°F-9°C 16°F-9°C 17°F-8°C 17°F-8°C 18°F-8°C 18°F-8°C 21°F-6°C 25°F-4°C 28°F-2°C 30°F-1°C 31°F-1°C 33°F1°C 33°F1°C 33°F1°C 33°F1°C 31°F-1°C 30°F-1°C 28°F-2°C 27°F-3°C 26°F-3°C 25°F-4°C 24°F-4°C 23°F-5°C 22°F-6°C 22°F-6°C 22°F-6°C 22°F-6°C 27°F-3°C 31°F-1°C
- - - - - - - - - - - - - - - - - - - - - - - - - - - - - - - - - - - -
3% 2% 2% 2% 2% 2% 2% 0% 0% 0% 0% 0% 0% 4% 4% 4% 4% 4% 4% 0% 0% 0% 0% 0% 0% 0% 0% 0% 0% 0% 0% 0% 0% 0% 0% 0%
4°F-16°C 4°F-16°C 5°F-15°C 5°F-15°C 5°F-15°C 5°F-15°C 5°F-15°C 6°F-14°C 6°F-14°C 7°F-14°C 8°F-13°C 8°F-13°C 9°F-13°C 11°F-12°C 13°F-11°C 15°F-9°C 15°F-9°C 16°F-9°C 16°F-9°C 16°F-9°C 16°F-9°C 16°F-9°C 17°F-8°C 17°F-8°C 18°F-8°C 18°F-8°C 19°F-7°C 19°F-7°C 19°F-7°C 18°F-8°C 18°F-8°C 18°F-8°C 18°F-8°C 18°F-8°C 21°F-6°C 23°F-5°C
49% 51% 56% 59% 61% 61% 64% 64% 64% 64% 67% 64% 67% 65% 60% 58% 53% 53% 49% 49% 49% 49% 56% 58% 66% 68% 74% 78% 81% 81% 84% 84% 84% 84% 78% 72%
SE SE SE SE SE SSE SSE SSE SSE S S S S SSE SW SW SW SSW SSW SSW W WNW NW NW NNW SSW SSE ENE E E E E E E ESE ESE
1 mph 1 mph 2 mph 2 mph 2 mph 1 mph 1 mph 1 mph 1 mph 1 mph 1 mph 1 mph 1 mph 1 mph 3 mph 3 mph 3 mph 5 mph 5 mph 5 mph 5 mph 5 mph 5 mph 3 mph 3 mph 3 mph 2 mph 2 mph 2 mph 2 mph 2 mph 2 mph 5 mph 5 mph 5 mph 7 mph
10 mi16 km 10 mi16 km 10 mi16 km 10 mi16 km 10 mi16 km 10 mi16 km 10 mi16 km 10 mi16 km 10 mi16 km 10 mi16 km 10 mi16 km 10 mi16 km 10 mi16 km 10 mi16 km 10 mi16 km 10 mi16 km 10 mi16 km 10 mi16 km 10 mi16 km 10 mi16 km 10 mi16 km 10 mi16 km 10 mi16 km 10 mi16 km 10 mi16 km 10 mi16 km 10 mi16 km 10 mi16 km 10 mi16 km 10 mi16 km 10 mi16 km 10 mi16 km 10 mi16 km 10 mi16 km 10 mi16 km 10 mi16 km
Hour (EST)
Weather
Clouds
Temperature
Precip. Type
POP
Dewpoint
Humidity
Wind Direction
Wind Speed
Visibility
POP = Probability of Precipitation. ** Indicates missing data/values from model statistics.

24 Hour Forecast

Tonight - Partly cloudy. Lows 15 to 20. West winds 15 to 20 mph with gusts up to 30 mph Decreasing to 5 to 15 mph toward daybreak.
Tuesday - Mostly cloudy. Highs in the mid 20s. West winds 5 to 10 mph.

48 Hour Forecast API Feed


Mon, Dec 6
7:00 pm

Mon, Dec 6
8:00 pm

Mon, Dec 6
9:00 pm

Mon, Dec 6
10:00 pm

Mon, Dec 6
11:00 pm

Tue, Dec 7
Midnight

Tue, Dec 7
1:00 am

Tue, Dec 7
2:00 am

Tue, Dec 7
3:00 am

Tue, Dec 7
4:00 am

Tue, Dec 7
5:00 am

Tue, Dec 7
6:00 am

Tue, Dec 7
7:00 am

Tue, Dec 7
8:00 am

Tue, Dec 7
9:00 am

Tue, Dec 7
10:00 am

Tue, Dec 7
11:00 am

Tue, Dec 7
Noon

Tue, Dec 7
1:00 pm

Tue, Dec 7
2:00 pm

Tue, Dec 7
3:00 pm

Tue, Dec 7
4:00 pm

Tue, Dec 7
5:00 pm

Tue, Dec 7
6:00 pm

Tue, Dec 7
7:00 pm

Tue, Dec 7
8:00 pm

Tue, Dec 7
9:00 pm

Tue, Dec 7
10:00 pm

Tue, Dec 7
11:00 pm

Wed, Dec 8
Midnight

Wed, Dec 8
1:00 am

Wed, Dec 8
2:00 am

Wed, Dec 8
3:00 am

Wed, Dec 8
4:00 am

Wed, Dec 8
5:00 am

Wed, Dec 8
6:00 am

Wed, Dec 8
7:00 am

Wed, Dec 8
8:00 am

Wed, Dec 8
9:00 am

Wed, Dec 8
10:00 am

Wed, Dec 8
11:00 am

Wed, Dec 8
Noon

Wed, Dec 8
1:00 pm

Wed, Dec 8
2:00 pm

Wed, Dec 8
3:00 pm

Wed, Dec 8
4:00 pm

Wed, Dec 8
5:00 pm

Wed, Dec 8
6:00 pm
Blowing SnowBlowing SnowPartly CloudyPartly CloudyPartly CloudyPartly CloudyClearClearClearClearClearClearClearSunnyCloudyOvercastOvercastOvercastCloudyCloudyOvercastPartly CloudyPartly CloudyPartly CloudyPartly CloudyPartly CloudyPartly CloudyCloudyLight SnowLight SnowModerate SnowHeavy SnowPatchy Moderate SnowPatchy Light SnowPatchy Moderate SnowPatchy Light SnowPatchy Light SnowPatchy Moderate SnowSunnyPartly CloudyOvercastOvercastPartly CloudySunnySunnySunnySunnyClear
Blowing snow Blowing snow Partly cloudy Partly cloudy Partly cloudy Partly cloudy Clear Clear Clear Clear Clear Clear Clear Sunny Cloudy Overcast Overcast Overcast Cloudy Cloudy Overcast Partly cloudy Partly cloudy Partly cloudy Partly cloudy Partly cloudy Partly cloudy Cloudy Light snow Light snow Moderate snow Heavy snow Patchy moderate snow Patchy light snow Patchy moderate snow Patchy light snow Patchy light snow Patchy moderate snow Sunny Partly cloudy Overcast Overcast Partly cloudy Sunny Sunny Sunny Sunny Clear
29°F
-2°C
26°F
-3°C
25°F
-4°C
24°F
-5°C
24°F
-5°C
23°F
-5°C
22°F
-5°C
22°F
-6°C
22°F
-6°C
21°F
-6°C
21°F
-6°C
20°F
-6°C
20°F
-7°C
20°F
-7°C
20°F
-7°C
21°F
-6°C
22°F
-6°C
23°F
-5°C
24°F
-4°C
25°F
-4°C
25°F
-4°C
26°F
-3°C
26°F
-3°C
26°F
-4°C
25°F
-4°C
25°F
-4°C
25°F
-4°C
25°F
-4°C
25°F
-4°C
26°F
-4°C
26°F
-4°C
25°F
-4°C
24°F
-4°C
23°F
-5°C
23°F
-5°C
23°F
-5°C
23°F
-5°C
23°F
-5°C
23°F
-5°C
25°F
-4°C
28°F
-3°C
30°F
-1°C
32°F
-0°C
33°F
1°C
34°F
1°C
35°F
2°C
34°F
1°C
31°F
-1°C
17°F
-8°C
15°F
-10°C
14°F
-10°C
13°F
-10°C
14°F
-10°C
12°F
-11°C
10°F
-12°C
9°F
-13°C
8°F
-14°C
7°F
-14°C
6°F
-15°C
6°F
-15°C
6°F
-15°C
5°F
-15°C
5°F
-15°C
5°F
-15°C
4°F
-16°C
2°F
-17°C
0°F
-18°C
-1°F
-19°C
-3°F
-19°C
-4°F
-20°C
-4°F
-20°C
-2°F
-19°C
-0°F
-18°C
-0°F
-18°C
1°F
-17°C
2°F
-17°C
2°F
-17°C
4°F
-16°C
6°F
-14°C
12°F
-11°C
17°F
-8°C
20°F
-7°C
22°F
-6°C
22°F
-6°C
22°F
-6°C
22°F
-6°C
22°F
-6°C
21°F
-6°C
19°F
-7°C
17°F
-8°C
15°F
-9°C
15°F
-10°C
15°F
-9°C
16°F
-9°C
18°F
-8°C
17°F
-8°C
30.12 in
1020 mb
30.18 in
1022 mb
30.21 in
1023 mb
30.21 in
1023 mb
30.24 in
1024 mb
30.27 in
1025 mb
30.3 in
1026 mb
30.3 in
1026 mb
30.27 in
1025 mb
30.3 in
1026 mb
30.3 in
1026 mb
30.3 in
1026 mb
30.3 in
1026 mb
30.3 in
1026 mb
30.3 in
1026 mb
30.33 in
1027 mb
30.33 in
1027 mb
30.36 in
1028 mb
30.3 in
1026 mb
30.27 in
1025 mb
30.24 in
1024 mb
30.21 in
1023 mb
30.21 in
1023 mb
30.21 in
1023 mb
30.21 in
1023 mb
30.18 in
1022 mb
30.18 in
1022 mb
30.18 in
1022 mb
30.15 in
1021 mb
30.12 in
1020 mb
30.12 in
1020 mb
30.12 in
1020 mb
30.09 in
1019 mb
30.06 in
1018 mb
30.06 in
1018 mb
30.06 in
1018 mb
30.06 in
1018 mb
30.06 in
1018 mb
30.06 in
1018 mb
30.06 in
1018 mb
30.06 in
1018 mb
30.06 in
1018 mb
30.03 in
1017 mb
30.03 in
1017 mb
30.03 in
1017 mb
30.03 in
1017 mb
30.03 in
1017 mb
30.06 in
1018 mb
61%62%63%64%65%62%58%56%54%53%52%52%53%51%51%48%44%39%35%31%28%26%26%29%32%33%34%35%36%38%43%57%74%88%94%96%96%95%93%84%69%58%51%46%44%45%51%57%
WNWWNWWNWWNWWNWWNWWNWWNWWNWWNWWNWWNWWNWNWWNWWWSWWWSWSWSWSSWSSWSSSESESESESESSESSESSSSSESSWSSWSSWSSSWSSWSWWSWWSWWWNWWNWNW
19 mph
31 km/h
18 mph
28 km/h
16 mph
26 km/h
15 mph
24 km/h
13 mph
22 km/h
14 mph
22 km/h
12 mph
19 km/h
10 mph
17 km/h
10 mph
16 km/h
9 mph
14 km/h
8 mph
12 km/h
6 mph
10 km/h
5 mph
9 km/h
5 mph
9 km/h
4 mph
7 km/h
4 mph
7 km/h
4 mph
7 km/h
5 mph
8 km/h
5 mph
8 km/h
4 mph
7 km/h
6 mph
9 km/h
5 mph
8 km/h
5 mph
8 km/h
3 mph
5 km/h
3 mph
5 km/h
4 mph
6 km/h
4 mph
6 km/h
4 mph
7 km/h
5 mph
8 km/h
5 mph
8 km/h
5 mph
9 km/h
6 mph
9 km/h
6 mph
10 km/h
5 mph
8 km/h
4 mph
6 km/h
4 mph
7 km/h
4 mph
7 km/h
4 mph
7 km/h
4 mph
7 km/h
4 mph
6 km/h
4 mph
7 km/h
4 mph
7 km/h
5 mph
8 km/h
6 mph
9 km/h
6 mph
9 km/h
5 mph
9 km/h
4 mph
6 km/h
4 mph
6 km/h
0%0%0%0%0%0%0%0%0%0%0%0%0%0%0%0%0%0%0%0%0%0%0%0%0%0%0%0%0%0%0%0%0%0%0%0%0%0%0%0%0%0%0%0%0%0%0%0%
1 mi
2 km
1 mi
2 km
6 mi
10 km
6 mi
10 km
6 mi
10 km
6 mi
10 km
6 mi
10 km
6 mi
10 km
6 mi
10 km
6 mi
10 km
6 mi
10 km
6 mi
10 km
6 mi
10 km
6 mi
10 km
6 mi
10 km
6 mi
10 km
6 mi
10 km
6 mi
10 km
6 mi
10 km
6 mi
10 km
6 mi
10 km
6 mi
10 km
6 mi
10 km
6 mi
10 km
6 mi
10 km
6 mi
10 km
6 mi
10 km
6 mi
10 km
6 mi
10 km
6 mi
10 km
3 mi
5 km
1 mi
2 km
4 mi
7 km
6 mi
10 km
4 mi
7 km
6 mi
10 km
6 mi
10 km
4 mi
7 km
6 mi
10 km
6 mi
10 km
6 mi
10 km
6 mi
10 km
6 mi
10 km
6 mi
10 km
6 mi
10 km
6 mi
10 km
6 mi
10 km
6 mi
10 km

Day/Time
Weather
Condition
Temperature
Dew Point
Pressure
Humidity
Wind Direction
Wind Speed
Prob Precip %
Visibility
Prob Precip % = Probability of Precipitation.